Home > Weather > Samara > Past weeks

Flag for Russia Weather for the Past 2 Weeks in Samara, Russia

Now
25 °F

Ice fog.


Feels Like: 18 °F
Forecast: 18 / 24 °F
Wind: 6 mph from West

Location: Samara

Current Time: Feb 6, 2016 at 4:35:37 AM

Latest Report: Feb 6, 2016 at 3:30 AM


Visibility: 3 mi

Pressure: 29.92 "Hg

Humidity: 93%

Dew point: 23 °F

Location of SamaraLocation

Historic Weather in Samara — Graph

°F

Samara Temperature Yesterday

Maximum temperature yesterday: 36 °F (at 3:00 PM)
Minimum temperature yesterday: 25 °F (at 11:30 PM)
Average temperature yesterday: 32 °F

High & Low Weather Summary for the Past Weeks

 TemperatureHumidityPressure
High36 °F (Feb 1, 11:30 AM)100% (Feb 1, 9:00 PM)30.60 "Hg (Feb 1, 9:00 PM)
Low-17 °F (Jan 27, 8:00 AM)70% (Jan 26, 1:00 PM)29.45 "Hg (Feb 4, 12:30 AM)
Average16 °F88%30.02 "Hg
* Reported Jan 22 2:00 AM — Feb 6 2:30 AM, Samara, Weather by CustomWeather, © 2016

Note: Actual official high and low records may vary slightly from our data, if they occured in-between our weather recording intervals... More about our weather records

Advertising

Samara Weather History for the Previous 24 Hours

 ConditionsComfort  
Time TempWeatherWind HumidityBarometerVisibility
2:30 AM
Sat, Feb 6
21 °FIce fog.6 mph93%29.92 "Hg3 mi
2:00 AM21 °FCold.6 mph93%29.92 "Hg1 mi
1:30 AM25 °FCold.3 mph93%29.92 "Hg1 mi
1:00 AM23 °FIce fog.3 mph100%29.92 "Hg0 mi
12:30 AM28 °FIce fog.3 mph93%29.92 "Hg1 mi
12:00 AM25 °FIce fog.6 mph100%29.92 "Hg2 mi
11:30 PM
Fri, Feb 5
25 °FIce fog.8 mph93%29.89 "Hg1 mi
11:00 PM27 °FIce fog.6 mph100%29.89 "Hg2 mi
10:30 PM28 °FIce fog.6 mph93%29.89 "Hg3 mi
10:00 PM28 °FIce fog.6 mph93%29.89 "Hg3 mi
9:30 PM28 °FIce fog.6 mph100%29.89 "Hg3 mi
9:00 PM28 °FIce fog.6 mph93%29.86 "Hg3 mi
8:30 PM32 °FIce fog.3 mph93%29.86 "Hg3 mi
8:00 PM30 °FMostly cloudy.3 mph93%29.86 "HgN/A
7:30 PM32 °FMostly cloudy.3 mph93%29.86 "HgN/A
7:00 PM34 °FFog.3 mph93%29.86 "Hg3 mi
6:30 PM34 °FLight rain. Mostly cloudy.3 mph93%29.83 "Hg3 mi
6:00 PM34 °FMostly cloudy.3 mph93%29.83 "HgN/A
5:30 PM34 °FMostly cloudy.6 mph87%29.83 "HgN/A
5:00 PM34 °FMostly cloudy.6 mph87%29.83 "HgN/A
4:30 PM34 °FMostly cloudy.6 mph87%29.80 "HgN/A
4:00 PM34 °FMostly cloudy.6 mph87%29.80 "HgN/A
3:30 PM34 °FFog.8 mph93%29.80 "Hg3 mi
3:00 PM36 °FFog.6 mph87%29.77 "Hg3 mi
2:30 PM34 °FFog.6 mph93%29.77 "Hg3 mi
2:00 PM34 °FFog.6 mph93%29.77 "Hg3 mi
1:30 PM34 °FFog.10 mph93%29.77 "Hg3 mi
1:00 PM34 °FFog.8 mph93%29.74 "Hg3 mi
12:30 PM32 °FIce fog.6 mph100%29.74 "Hg2 mi
12:00 PM32 °FIce fog.6 mph100%29.74 "Hg3 mi
11:30 AM32 °FIce fog.3 mph100%29.74 "Hg3 mi
11:00 AM32 °FIce fog.3 mph100%29.74 "Hg2 mi
10:30 AM32 °FIce fog.3 mph93%29.71 "Hg2 mi
10:00 AM32 °FIce fog.1 mph93%29.71 "Hg2 mi
9:30 AM30 °FIcy mix. Low clouds.1 mph100%29.71 "Hg2 mi
9:00 AM30 °FIcy mix. Low clouds.1 mph100%29.71 "Hg2 mi
8:30 AM32 °FLight rain. Low clouds.6 mph93%29.71 "Hg2 mi
8:00 AM32 °FLight rain. Low clouds.6 mph93%29.71 "Hg2 mi
7:30 AM32 °FLight rain. Low clouds.6 mph93%29.71 "Hg1 mi
6:30 AM30 °FChilly.8 mph100%29.74 "Hg1 mi
6:00 AM32 °FRain. Mostly cloudy.6 mph93%29.74 "Hg1 mi
5:30 AM32 °FLight rain. Mostly cloudy.8 mph93%29.74 "Hg3 mi
5:00 AM32 °FLight rain. Mostly cloudy.8 mph93%29.74 "Hg2 mi
4:30 AM32 °FPartly cloudy.6 mph93%29.74 "HgN/A
4:00 AM30 °FClear.6 mph93%29.74 "Hg10 mi
Weather by CustomWeather, © 2016

See weather overviewHow to use our weather pages